Location: Kaiser
(34.0939°N, 117.4889°W)
Time: 03:44:15
(UTC+00:00)

Cosmos 676 Rocket - Pass Details

Date: 29 October 2020
Orbit: 754 x 784 km, 74.0° (Epoch: 26 November)

Event Time Altitude Azimuth Distance (km) Brightness Sun altitude
Rises 13:21:11 0° 190° (S) 3,212 7.2 -10.2°
Reaches altitude 10° 13:23:33 10° 189° (S) 2,285 6.5 -9.7°
Maximum altitude 13:28:43 73° 105° (ESE) 792 4.3 -8.6°
Drops below altitude 10° 13:33:52 10° 21° (NNE) 2,286 6.6 -7.6°
Sets 13:36:15 0° 20° (NNE) 3,213 7.3 -7.1°
